Main page
METAR-TAF:

METAR-TAF

Airports :

Bandar Kangan, Iran

Jam Airport

latitude: 27-49-14N, longitude: 52-21-08E, elevation: 662 m

Current weather observation

The report was made 23 minutes ago, at 07:00 UTC
Wind 8 kt from the East/Northeast
Temperature 41°C
Humidity 21%
Pressure 1007 hPa
Visibility 10 km or more
no clouds below 1500 m and no cumulonimbus

METAR: OIBJ 190700Z 07008KT CAVOK 41/14 Q1007

Time: 11:53 (07:23 UTC)


TAF: missing

Weather observations and forecasts of more than 4000 airports (METAR and TAF reports).

The available stations are represented by yellow and red dots on the map.

Hover mouse over dot to see the name of the station.

Then click to see weather observations and forecasts.

To change the map : click on the green buttons with a black cross to zoom in, on the green button with a dash to zoom out, or on the green arrows for adjacent maps.


METAR-TAF: